Aérodrome :
LOGIN :

S'inscrire | Disclaimer

   EN    FR    IT 

 










Légende :    VFR   VFR Marginal   IFR   IFR Intensif   IFR Très Intensif
Visi : 
Plafond : 
>= 8 km
>= 3000ft
5 à 8 km
1000 à 3000 ft
1500m à 5 km
500 à 1000 ft
800 à 1500m
200 à 500 ft
< 800m
< 200 ft
Symboles :   Orages  Brouillard  Fortes neiges  Fortes précipitations  Vent > 20 kt
SIGMETs :   Divers  Orages  Givrage  Turbulence  Onde Orograph.  Cendres Volcan.







- Altitude de l'aérodrome : 74 ft
- Code IATA : NDZ


ETMN - Cuxhaven Nordholz Sea AB

DERNIER METAR :
  • 222320Z 16007KT 9000 BKN025 M04/M07 Q1001 BLU

METARs EXPIRÉS :
  • 222220Z 17008KT 9000 SCT170 SCT220 M03/M07 Q1001 BLU+FCST CANCEL
  • 222120Z 17008KT 9000 BKN170 M03/M07 Q1002 BLU BLU TEMPO WHT

TAF AMD TAF ETMN
Valide du 22 à 18h jusqu'au 23 à 03h UTC


222151Z 2218/2303 15008KT 9000 NSW SCT030 BKN120
TEMPO 2219/2224 14006KT 6000 NSW FEW012 BKN018 CANCEL 2220
Pas de NOTAMs connus pour ce terrain.



MET'MAP, la Météo Aéronautique d'un coup d'oeil ! - Copyright ORBIFLY Décembre 2007 - Disclaimer

ORBIFLY MET'MAP TEAM :

Programmation & Développement : Alexandra Zaïnal
Conception & Développement : Baudouin d'Aumeries
Co-Programmation & Développement : Marc-Olivier Méhu
Soutien technique & logistique : Manuel Goepfert

Contact : metmap@orbifly.com




SOURCES & CREDITS :

   NOAA